Regional Weather Roundup
Issued by NWS Kansas City/Pleasant Hill, MO

Home | Current Version | Previous Version | Text Only | Print | Product List | Glossary On
Versions: 1 2 3 4 5 6 7 8 9 10 11 12 13 14 15 16 17 18 19 20 21 22 23 24 25 26 27 28 29 30 31 32 33 34 35 36 37 38 39 40 41 42 43 44 45 46 47 48 49 50
318
ASUS43 KEAX 221510
RWREAX

WEATHER ROUNDUP FOR EASTERN KANSAS AND NORTHWEST MISSOURI
NATIONAL WEATHER SERVICE KANSAS CITY/PLEASANT HILL MO
900 AM CST SUN JAN 22 2017

KSZ040-057-103>105-MOZ028-029-037-043-221600-
...KANSAS CITY METROPOLITAN AREA...

CITY           SKY/WX    TMP DP  RH WIND       PRES   REMARKS
K.C. INTL      CLOUDY    42  37  82 N12       29.66R
K.C. DOWNTOWN  CLOUDY    46  41  82 N10       29.66R
LEES SUMMIT    LGT RAIN  44  42  93 N8        29.66R
OLATHE - IXD   CLOUDY    44  42  93 N10       29.66R
OLATHE - OJC   CLOUDY    44  42  93 N9        29.66R
LAWRENCE       CLOUDY    41  38  89 NW10      29.68R WCI  35

$$

MOZ001>008-011>017-020>025-030>033-038>040-044>046-053-054-221600-
...NORTHERN AND CENTRAL MISSOURI...

CITY           SKY/WX    TMP DP  RH WIND       PRES   REMARKS
ST. JOSEPH     MOSUNNY   35  34  96 N14       29.70R WCI  26
MOSBY          CLOUDY    43  41  93 N6        29.66R
WARRENSBURG    CLOUDY    43  41  93 N7        29.63R FOG
WHITEMAN AFB   LGT RAIN  44  44 100 N12       29.61R FOG
CLINTON        RAIN      45  45 100 N17       29.58R
SEDALIA        LGT RAIN  45  43  93 N14       29.60S FOG
WARSAW         NOT AVBL
CHILLICOTHE      N/A     37  36  96 N7        29.68R WCI  32
KIRKSVILLE     CLOUDY    40  39  97 N5        29.65R FOG

$$

MOZ041-047>049-056>058-063>065-088>090-097-221600-
...EASTERN AND SOUTHERN MISSOURI...

CITY           SKY/WX    TMP DP  RH WIND       PRES   REMARKS
ST. LOUIS INTL CLOUDY    48  42  80 N7        29.53S
SPIRIT OF STL  CLOUDY    48  44  86 N12       29.52F FOG
COLUMBIA       CLOUDY    45  41  86 N13       29.58R
JEFFERSON CITY CLOUDY    46  42  86 N10G21    29.56S
ROLLA          CLOUDY    47  45  93 N13       29.49R FOG
OSAGE BEACH    CLOUDY    47  44  90 N8G16     29.53R
SPRINGFIELD    CLOUDY    49  47  93 NE20      29.46R
BRANSON        LGT RAIN  52  52 100 NE5       29.42R VSB 1/4
JOPLIN         RAIN      48  47  96 N15G22    29.50R FOG
WEST PLAINS    LGT RAIN  54  53  97 NE8       29.44F

$$

IAZ060-094-KSZ022-034>040-054-083-096-NEZ052-066-093-221600-
...KANSAS...SOUTHEAST NEBRASKA AND IOWA...

CITY           SKY/WX    TMP DP  RH WIND       PRES   REMARKS
TOPEKA         PTSUNNY   40  34  79 N10       29.70R WCI  33
MANHATTAN      CLOUDY    38  32  79 N7        29.73R WCI  33
EMPORIA        CLOUDY    43  39  86 N12G22    29.67R
CHANUTE        LGT RAIN  47  44  90 N16       29.61R FOG
WICHITA        PTSUNNY   41  37  86 N18       29.70R WCI  32
OMAHA          PTSUNNY   33  28  81 NW9       29.75R WCI  25
LINCOLN        CLOUDY    32  30  92 N12       29.77R WCI  23
FALLS CITY     CLOUDY    32  30  92 N14       29.72R FOG     WCI  22
LAMONI         CLOUDY    31  30  96 N15G22    29.69R FOG     WCI  20
DES MOINES     CLOUDY    34  32  92 NW12      29.70R WCI  25

$$





USA.gov is the U.S. government's official web portal to all federal, state and local government web resources and services.